Location: Skalnate Pleso
(49.1889°N, 20.2450°E)
Time: 07:04:08
(UTC+01:00)

Cosmos 1400 Rocket - Pass Details

Date: 19 November 2019
Orbit: 522 x 568 km, 81.2° (Epoch: 13 December)

Event Time Altitude Azimuth Distance (km) Brightness Sun altitude
Exits shadow 04:57:51 - 353° (N) 2,528 6.0 -18.8°
Reaches altitude 10° 04:59:31 10° 357° (N) 1,858 5.4 -18.5°
Maximum altitude 05:03:31 50° 74° (ENE) 708 3.7 -17.9°
Drops below altitude 10° 05:07:25 10° 151° (SSE) 1,816 6.0 -17.2°
Sets 05:09:36 0° 157° (SSE) 2,696 6.8 -16.9°
